Flight Track Log - Related Links

Times and Time Zones

All times are in EDT time to prevent confusion due to time zone crossing. See the KEE202 flight status page for this flight to view local times or setup timezone preferences in your user account.

Time Position Orientation Groundspeed Altitude Reporting Facility
EDT Latitude Longitude Course Direction KTS MPH feet Rate Location/Type
Mon 05:11:08 PM 48.6000 -81.6167 297° West 140 161 8,700  Level Toronto Center
Mon 05:12:08 PM 48.6167 -81.6667 297° West 140 161 10,300 1,700 Climbing Toronto Center
Mon 05:13:00 PM 48.6644 -82.0050 287° West  Level FlightAware Approximate
Mon 05:13:08 PM 48.6167 -81.7500 270° West 140 161 12,100  Level Toronto Center
Mon 05:14:00 PM 48.6824 -82.0948 287° West  Level FlightAware Approximate
Mon 05:14:08 PM 48.6333 -81.8000 297° West 140 161 13,700  Level Toronto Center
Mon 05:15:00 PM 48.7002 -82.1846 282° West  Level FlightAware Approximate
Mon 05:15:08 PM 48.6333 -81.8500 270° West 140 161 15,100  Level Toronto Center
Mon 05:16:08 PM 48.6500 -81.9000 297° West 150 173 16,300 1,200 Climbing Toronto Center
Mon 05:17:08 PM 48.6667 -81.9833 287° West 150 173 17,500 1,100 Climbing Toronto Center
Mon 05:18:08 PM 48.6667 -82.0500 270° West 160 184 18,500 1,050 Climbing Toronto Center
Mon 05:19:08 PM 48.6667 -82.1000 270° West 160 184 19,600 1,050 Climbing Toronto Center
Mon 05:20:08 PM 48.6833 -82.1833 287° West 160 184 20,600 950 Climbing Toronto Center
Mon 05:21:08 PM 48.7000 -82.2333 297° West 170 196 21,500 950 Climbing Toronto Center
Mon 05:22:08 PM 48.7167 -82.3000 291° West 170 196 22,500 950 Climbing Toronto Center
Mon 05:23:08 PM 48.7333 -82.3833 287° West 170 196 23,400 700 Climbing Toronto Center
Mon 05:24:08 PM 48.7333 -82.4333 270° West 170 196 23,900 300 Climbing Toronto Center
Mon 05:25:08 PM 48.7500 -82.5333 284° West 190 219 24,000 50 Climbing Toronto Center
Mon 05:26:08 PM 48.7667 -82.6167 287° West 210 242 24,000  Level Toronto Center
Mon 05:27:08 PM 48.7833 -82.7167 284° West 220 253 24,000  Level Toronto Center
Mon 05:28:08 PM 48.7833 -82.7833 270° West 220 253 24,000  Level Toronto Center
Mon 05:29:08 PM 48.8000 -82.9000 282° West 230 265 24,000  Level Toronto Center
Mon 05:30:08 PM 48.8167 -83.0000 284° West 230 265 24,000  Level Toronto Center
Mon 05:31:08 PM 48.8333 -83.0667 291° West 230 265 24,000  Level Toronto Center
Mon 05:32:08 PM 48.8500 -83.1667 284° West 220 253 24,000  Level Toronto Center
Mon 05:33:08 PM 48.8667 -83.2500 287° West 220 253 24,000  Level Toronto Center
Mon 05:34:08 PM 48.8667 -83.3500 270° West 220 253 24,000  Level Toronto Center
Mon 05:35:08 PM 48.8833 -83.4333 287° West 220 253 24,000  Level Toronto Center
Mon 05:35:45 PM 48.9000 -83.4333 360° North 220 253 24,000  Level Winnipeg Center
Mon 05:36:45 PM 48.9000 -83.5333 270° West 220 253 24,000  Level Winnipeg Center
Mon 05:37:45 PM 48.9167 -83.6333 284° West 220 253 24,000  Level Winnipeg Center
Mon 05:38:45 PM 48.9333 -83.7167 287° West 220 253 24,000  Level Winnipeg Center
Mon 05:39:45 PM 48.9333 -83.8167 270° West 220 253 24,000  Level Winnipeg Center
Mon 05:40:45 PM 48.9500 -83.8833 291° West 220 253 24,000  Level Winnipeg Center
Mon 05:41:45 PM 48.9500 -83.9833 270° West 220 253 24,000  Level Winnipeg Center
Mon 05:42:45 PM 48.9667 -84.0833 284° West 220 253 24,000  Level Winnipeg Center
Mon 05:43:45 PM 48.9833 -84.1667 287° West 210 242 24,000  Level Winnipeg Center
Mon 05:44:45 PM 48.9833 -84.2667 270° West 220 253 24,000 50 Level Winnipeg Center
Mon 05:45:45 PM 49.0167 -84.3333 307° West 210 242 24,100  Climbing Winnipeg Center
Mon 05:46:45 PM 49.0333 -84.4333 284° West 220 253 24,000 -50 Descending Winnipeg Center
Mon 05:47:45 PM 49.0333 -84.5333 270° West 220 253 24,000  Level Winnipeg Center
Mon 05:48:45 PM 49.0500 -84.6000 291° West 220 253 24,000  Level Winnipeg Center
Mon 05:49:45 PM 49.0500 -84.7000 270° West 220 253 24,000  Level Winnipeg Center
Mon 05:50:45 PM 49.0667 -84.8000 284° West 220 253 24,000  Level Winnipeg Center
Mon 05:51:45 PM 49.0833 -84.8833 287° West 220 253 24,000  Level Winnipeg Center
Mon 05:52:45 PM 49.0833 -84.9833 270° West 220 253 24,000  Level Winnipeg Center
Mon 05:53:45 PM 49.1167 -85.0500 307° West 220 253 24,000  Level Winnipeg Center
Mon 05:54:45 PM 49.1167 -85.1500 270° West 220 253 24,000  Level Winnipeg Center
Mon 05:55:45 PM 49.1333 -85.2500 284° West 220 253 24,000  Level Winnipeg Center
Mon 05:56:45 PM 49.1333 -85.3333 270° West 220 253 24,000  Level Winnipeg Center
Mon 05:57:45 PM 49.1500 -85.4333 284° West 210 242 24,000  Level Winnipeg Center
Mon 05:58:45 PM 49.1667 -85.5000 291° West 220 253 24,000  Level Winnipeg Center
Mon 05:59:45 PM 49.1667 -85.6000 270° West 210 242 24,000  Level Winnipeg Center
Mon 06:00:45 PM 49.1833 -85.7000 284° West 220 253 24,000  Level Winnipeg Center
Mon 06:01:45 PM 49.1833 -85.7833 270° West 210 242 24,000  Level Winnipeg Center
Mon 06:02:45 PM 49.2167 -85.8833 297° West 210 242 24,000  Level Winnipeg Center
Mon 06:03:45 PM 49.2167 -85.9500 270° West 220 253 24,000  Level Winnipeg Center
Mon 06:04:45 PM 49.2333 -86.0500 284° West 210 242 24,000  Level Winnipeg Center
Mon 06:05:45 PM 49.2333 -86.1500 270° West 210 242 24,000  Level Winnipeg Center
Mon 06:06:45 PM 49.2500 -86.2333 287° West 210 242 24,000  Level Winnipeg Center
Mon 06:07:45 PM 49.2500 -86.3000 270° West 210 242 24,000  Level Winnipeg Center
Mon 06:08:45 PM 49.2667 -86.4167 282° West 210 242 24,000  Level Winnipeg Center
Mon 06:09:45 PM 49.2833 -86.4833 291° West 210 242 24,000  Level Winnipeg Center
Mon 06:10:45 PM 49.3000 -86.5833 284° West 210 242 24,000  Level Winnipeg Center
Mon 06:11:45 PM 49.3000 -86.6833 270° West 210 242 24,000  Level Winnipeg Center
Mon 06:12:45 PM 49.3167 -86.7667 287° West 210 242 24,000 -50 Level Winnipeg Center
Mon 06:13:45 PM 49.3167 -86.8667 270° West 210 242 23,900  Descending Winnipeg Center
Mon 06:14:45 PM 49.3333 -86.9333 291° West 210 242 24,000 50 Climbing Winnipeg Center
Mon 06:15:45 PM 49.3333 -87.0333 270° West 210 242 24,000  Level Winnipeg Center
Mon 06:16:45 PM 49.3667 -87.1167 302° West 210 242 24,000 -50 Level Winnipeg Center
Mon 06:17:45 PM 49.3667 -87.2167 270° West 210 242 23,900  Descending Winnipeg Center
Mon 06:18:45 PM 49.3833 -87.2833 291° West 210 242 24,000  Climbing Winnipeg Center
Mon 06:19:45 PM 49.3833 -87.3833 270° West 210 242 23,900  Descending Winnipeg Center
Mon 06:20:45 PM 49.4167 -87.4667 302° West 210 242 24,000 50 Climbing Winnipeg Center
Mon 06:21:45 PM 49.4167 -87.5667 270° West 210 242 24,000 -50 Level Winnipeg Center
Mon 06:22:45 PM 49.4333 -87.6333 291° West 210 242 23,900  Descending Winnipeg Center
Mon 06:23:45 PM 49.4333 -87.7500 270° West 210 242 24,000 50 Climbing Winnipeg Center
Mon 06:24:45 PM 49.4667 -87.8333 302° West 210 242 24,000  Level Winnipeg Center
Mon 06:25:45 PM 49.4500 -87.9167 253° West 210 242 24,000  Level Winnipeg Center
Mon 06:26:45 PM 49.4500 -88.0000 270° West 210 242 24,000  Level Winnipeg Center
Mon 06:27:45 PM 49.4667 -88.1000 284° West 210 242 24,000  Level Winnipeg Center
Mon 06:28:45 PM 49.4667 -88.1833 270° West 210 242 24,000  Level Winnipeg Center
Mon 06:29:45 PM 49.4833 -88.2833 284° West 210 242 24,000  Level Winnipeg Center
Mon 06:30:45 PM 49.5000 -88.3500 291° West 210 242 24,000  Level Winnipeg Center
Mon 06:31:45 PM 49.5000 -88.4500 270° West 210 242 24,000  Level Winnipeg Center
Mon 06:32:45 PM 49.5167 -88.5500 284° West 210 242 24,000  Level Winnipeg Center
Mon 06:33:45 PM 49.5167 -88.6333 270° West 210 242 24,000  Level Winnipeg Center
Mon 06:34:45 PM 49.5333 -88.7167 287° West 210 242 24,000  Level Winnipeg Center
Mon 06:35:45 PM 49.5333 -88.8167 270° West 210 242 24,000  Level Winnipeg Center
Mon 06:36:45 PM 49.5333 -88.8833 270° West 200 230 24,000  Level Winnipeg Center
Mon 06:37:45 PM 49.5500 -88.9833 284° West 200 230 24,000  Level Winnipeg Center
Mon 06:38:45 PM 49.5667 -89.0667 287° West 200 230 24,000  Level Winnipeg Center
Mon 06:39:45 PM 49.5667 -89.1333 270° West 200 230 24,000  Level Winnipeg Center
Mon 06:40:45 PM 49.5833 -89.2500 282° West 200 230 24,000 -50 Level Winnipeg Center
Mon 06:41:45 PM 49.5833 -89.3167 270° West 200 230 23,900  Descending Winnipeg Center
Mon 06:42:45 PM 49.5833 -89.4000 270° West 200 230 24,000 50 Climbing Winnipeg Center
Mon 06:43:45 PM 49.6000 -89.5000 284° West 200 230 24,000 -50 Level Winnipeg Center
Mon 06:44:45 PM 49.6167 -89.5667 291° West 200 230 23,900  Descending Winnipeg Center
Mon 06:45:45 PM 49.6333 -89.6833 282° West 210 242 24,000 50 Climbing Winnipeg Center
Mon 06:46:45 PM 49.6333 -89.7500 270° West 210 242 24,000  Level Winnipeg Center
Mon 06:47:46 PM 49.6333 -89.8333 270° West 210 242 24,000 -50 Level Winnipeg Center
Mon 06:48:45 PM 49.6500 -89.9333 284° West 210 242 23,900  Descending Winnipeg Center
Mon 06:49:45 PM 49.6500 -90.0167 270° West 210 242 24,000  Climbing Winnipeg Center
Mon 06:50:45 PM 49.6500 -90.1167 270° West 210 242 23,900  Descending Winnipeg Center
Mon 06:51:45 PM 49.6500 -90.1833 270° West 210 242 24,000 50 Climbing Winnipeg Center
Mon 06:52:45 PM 49.6833 -90.2833 297° West 210 242 24,000  Level Winnipeg Center
Mon 06:53:45 PM 49.6833 -90.3667 270° West 210 242 24,000  Level Winnipeg Center
Mon 06:54:45 PM 49.6833 -90.4667 270° West 210 242 24,000  Level Winnipeg Center
Mon 06:55:45 PM 49.7000 -90.5500 287° West 210 242 24,000  Level Winnipeg Center
Mon 06:56:45 PM 49.7000 -90.6500 270° West 210 242 24,000  Level Winnipeg Center
Mon 06:57:45 PM 49.7000 -90.7333 270° West 210 242 24,000 -50 Level Winnipeg Center
Mon 06:58:45 PM 49.7167 -90.8333 284° West 210 242 23,900  Descending Winnipeg Center
Mon 06:59:45 PM 49.7333 -90.9000 291° West 210 242 24,000 50 Climbing Winnipeg Center
Mon 07:00:45 PM 49.7333 -91.0000 270° West 210 242 24,000  Level Winnipeg Center
Mon 07:01:46 PM 49.7500 -91.0833 287° West 210 242 24,000  Level Winnipeg Center
Mon 07:02:45 PM 49.7500 -91.1833 270° West 210 242 24,000 -34 Level Winnipeg Center
Mon 07:04:45 PM 49.7667 -91.3667 278° West 210 242 23,900  Descending Winnipeg Center
Mon 07:05:45 PM 49.7833 -91.4500 287° West 210 242 24,000 50 Climbing Winnipeg Center
Mon 07:06:45 PM 49.7833 -91.5500 270° West 210 242 24,000 -50 Level Winnipeg Center
Mon 07:07:45 PM 49.7833 -91.6333 270° West 210 242 23,900  Descending Winnipeg Center
Mon 07:08:45 PM 49.7833 -91.7000 270° West 200 230 24,000 50 Climbing Winnipeg Center
Mon 07:09:45 PM 49.8000 -91.8000 285° West 200 230 24,000  Level Winnipeg Center
Mon 07:10:45 PM 49.8000 -91.8833 270° West 200 230 24,000  Level Winnipeg Center
Mon 07:11:45 PM 49.8000 -91.9667 270° West 200 230 24,000  Level Winnipeg Center
Mon 07:12:45 PM 49.8167 -92.0667 285° West 200 230 24,000  Level Winnipeg Center
Mon 07:13:45 PM 49.8333 -92.1333 291° West 200 230 24,000  Level Winnipeg Center
Mon 07:14:45 PM 49.8333 -92.2500 270° West 200 230 24,000  Level Winnipeg Center
Mon 07:15:46 PM 49.8333 -92.3167 270° West 200 230 24,000  Level Winnipeg Center
Mon 07:16:45 PM 49.8333 -92.4167 270° West 200 230 24,000  Level Winnipeg Center
Mon 07:17:45 PM 49.8333 -92.5000 270° West 200 230 24,000  Level Winnipeg Center
Mon 07:18:45 PM 49.8500 -92.5833 287° West 210 242 24,000  Level Winnipeg Center
Mon 07:19:45 PM 49.8500 -92.6833 270° West 200 230 24,000  Level Winnipeg Center
Mon 07:20:45 PM 49.8500 -92.7667 270° West 200 230 24,000  Level Winnipeg Center
Mon 07:21:45 PM 49.8667 -92.8333 291° West 200 230 24,000  Level Winnipeg Center
Mon 07:22:46 PM 49.8667 -92.9333 270° West 210 242 24,000  Level Winnipeg Center
Mon 07:23:45 PM 49.8833 -93.0167 287° West 200 230 24,000  Level Winnipeg Center
Mon 07:24:45 PM 49.8833 -93.1167 270° West 200 230 24,000  Level Winnipeg Center
Mon 07:25:45 PM 49.8833 -93.2000 270° West 200 230 24,000  Level Winnipeg Center
Mon 07:26:45 PM 49.8833 -93.2833 270° West 200 230 24,000 -50 Level Winnipeg Center
Mon 07:27:45 PM 49.8833 -93.3833 270° West 210 242 23,900 -50 Descending Winnipeg Center
Mon 07:28:45 PM 49.8833 -93.4667 270° West 200 230 23,900 50 Level Winnipeg Center
Mon 07:29:45 PM 49.9000 -93.5667 285° West 210 242 24,000 50 Climbing Winnipeg Center
Mon 07:30:45 PM 49.8833 -93.6500 253° West 210 242 24,000  Level Winnipeg Center
Mon 07:31:45 PM 49.8833 -93.7167 270° West 210 242 24,000  Level Winnipeg Center
Mon 07:32:45 PM 49.8667 -93.8167 256° West 210 242 24,000  Level Winnipeg Center
Mon 07:33:45 PM 49.8667 -93.9000 270° West 210 242 24,000  Level Winnipeg Center
Mon 07:34:45 PM 49.8667 -94.0000 270° West 210 242 24,000  Level Winnipeg Center
Mon 07:35:45 PM 49.8667 -94.0833 270° West 210 242 24,000  Level Winnipeg Center
Mon 07:36:45 PM 49.8667 -94.1833 270° West 210 242 24,000  Level Winnipeg Center
Mon 07:37:45 PM 49.8500 -94.2667 253° West 210 242 24,000  Level Winnipeg Center
Mon 07:38:45 PM 49.8500 -94.3500 270° West 210 242 24,000  Level Winnipeg Center
Mon 07:39:45 PM 49.8500 -94.4500 270° West 210 242 24,000  Level Winnipeg Center
Mon 07:40:45 PM 49.8333 -94.5333 253° West 210 242 24,000  Level Winnipeg Center
Mon 07:41:45 PM 49.8333 -94.6333 270° West 210 242 24,000  Level Winnipeg Center
Mon 07:42:45 PM 49.8167 -94.7167 253° West 210 242 24,000  Level Winnipeg Center
Mon 07:43:45 PM 49.8167 -94.7833 270° West 210 242 24,000  Level Winnipeg Center
Mon 07:44:45 PM 49.8333 -94.8833 285° West 210 242 24,000  Level Winnipeg Center
Mon 07:45:45 PM 49.8167 -94.9667 253° West 210 242 24,000  Level Winnipeg Center
Mon 07:46:45 PM 49.8167 -95.0667 270° West 210 242 24,000  Level Winnipeg Center
Mon 07:47:45 PM 49.8167 -95.1500 270° West 210 242 24,000  Level Winnipeg Center
Mon 07:48:45 PM 49.8000 -95.2500 256° West 210 242 24,000  Level Winnipeg Center
Mon 07:49:45 PM 49.8000 -95.3333 270° West 210 242 24,000  Level Winnipeg Center
Mon 07:50:45 PM 49.8000 -95.4333 270° West 210 242 24,000 -450 Level Winnipeg Center
Mon 07:51:45 PM 49.8000 -95.5167 270° West 220 253 23,100 -1,091 Descending Winnipeg Center
Mon 07:52:46 PM 49.7833 -95.6167 256° West 240 276 21,800 -1,350 Descending Winnipeg Center
Mon 07:53:45 PM 49.7667 -95.7167 256° West 250 288 20,400 -1,462 Descending Winnipeg Center
Mon 07:54:45 PM 49.7667 -95.8500 270° West 250 288 18,900 -1,600 Descending Winnipeg Center
Mon 07:55:45 PM 49.7500 -95.9500 256° West 250 288 17,200 -1,600 Descending Winnipeg Center
Mon 07:56:45 PM 49.7500 -96.0667 270° West 250 288 15,700 -1,450 Descending Winnipeg Center
Mon 07:57:45 PM 49.7500 -96.1667 270° West 250 288 14,300 -1,350 Descending Winnipeg Center
Mon 07:58:45 PM 49.7500 -96.2667 270° West 250 288 13,000 -1,400 Descending Winnipeg Center
Mon 07:59:45 PM 49.7500 -96.3667 270° West 240 276 11,500 -1,550 Descending Winnipeg Center
Mon 08:00:45 PM 49.7667 -96.4667 285° West 240 276 9,900 -1,400 Descending Winnipeg Center
Mon 08:01:45 PM 49.7833 -96.5833 283° West 240 276 8,700 -1,300 Descending Winnipeg Center
Mon 08:02:45 PM 49.8000 -96.6500 291° West 240 276 7,300 -850 Descending Winnipeg Center
Mon 08:03:45 PM 49.8167 -96.7667 283° West 220 253 7,000 -500 Descending Winnipeg Center
Mon 08:04:45 PM 49.8500 -96.8333 308° West 220 253 6,300 -900 Descending Winnipeg Center
Mon 08:05:45 PM 49.8833 -96.9333 297° West 240 276 5,200 -1,100 Descending Winnipeg Center
Mon 08:06:45 PM 49.9333 -97.0000 319° Northwest 240 276 4,100 -750 Descending Winnipeg Center
Mon 08:07:45 PM 49.9833 -97.0500 327° Northwest 210 242 3,700 -350 Descending Winnipeg Center
Mon 08:08:45 PM 50.0000 -97.1167 291° West 170 196 3,400 -650 Descending Winnipeg Center
Mon 08:09:45 PM 49.9667 -97.1667 224° Southwest 150 173 2,400 -850 Descending Winnipeg Center
Mon 08:10:45 PM 49.9333 -97.2000 213° Southwest 130 150 1,700 -800 Descending Winnipeg Center
Mon 08:11:45 PM 49.9000 -97.2333 213° Southwest 120 138 800 -900 Descending Winnipeg Center
Mon 08:13:00 PM 49.9550 -97.1629 39° Northeast  Level Estimated
Mon 08:20:00 PM 50.0564 -97.0325 40° Northeast  Level Estimated
Mon 08:21:00 PM 50.0564 -97.0325 180° South  Level Estimated
Mon 08:22:00 PM 50.0564 -97.0325 180° South  Level Estimated
Mon 08:23:00 PM 50.0564 -97.0325 180° South  Level Estimated
Mon 08:24:00 PM 50.0564 -97.0325 180° South  Level Estimated
Mon 08:25:00 PM 50.0564 -97.0325 180° South  Level Estimated

Login

Don't have an account? Register now (free) for customized features, flight alerts, and more!